Skip Navigation Links weather.gov 
NOAA logo-Select to go to the NOAA homepage NDBC Title GraphicClick to go to NDBC home page   Select to go to the NWS homepage
Home About Us Contact Us
 
 
    
    Station List

 Data Access
    Mobile Access
    Classic Maps
         Recent
         DART®
    Obs Search
    Ship Obs Report
    BuoyCAMs
    TAO
    DODS
    OceanSITES
    HF Radar
    OSMC
    Dial-A-Buoy
    RSS Feeds Image indicating link to RSS feed access page
    Web Widget
    Email Access
    Web Data Guide
    Maintenance Schedule
    Station Status Report

 Program Info
    TAO
    DART®
    VOS
    IOOS®

 Publications
    NDBC PEA
    NDBC FONSI
    NDBC DQC Handbook

 FAQ
 Visitor Information
 
USA.gov is the U.S. government's official web portal to all federal, state and local government web resources and services.

Station KEXA2 - Ketchikan Harbor, AK Image indicating link to RSS feed of recent meteorological observations for station KEXA2

Owned and maintained by Marine Exchange of Alaska
C-MAN Station
55.352 N 131.684 W (55°21'6" N 131°41'2" W)

Site elevation: 3.7 m above mean sea level
Air temp height: 7 m above site elevation
Anemometer height: 7 m above site elevation
Barometer elevation: 10.7 m above mean sea level

Search And Rescue (SAR) Data

Meteorological Observations from Nearby Stations and Ships Image indicating link to RSS feed of recent meteorological observations near station KEXA2

Large icon indicates selected station.
yellow diamond Stations with recent data
red diamond Stations with no data in last 8 hours
     (24 hours for tsunami stations)


Conditions at KEXA2 as of
(8:52 pm AKDT on 06/18/2018)
0452 GMT on 06/19/2018:
     

Click on the graph icon in the table below to see a time series plot of the last five days of that observation.

5-day plot - Wind Direction Wind Direction (WDIR): WNW ( 300 deg true )
5-day plot - Wind Speed Wind Speed (WSPD): 11 kts
5-day plot - Wind Gust Wind Gust (GST): 17 kts
5-day plot - Atmospheric Pressure Atmospheric Pressure (PRES): 30.01 in
5-day plot - Air Temperature Air Temperature (ATMP): 75.0 °F
5-day plot - Dew Point Dew Point (DEWP): 53.4 °F
5-day plot - Wind Speed at 10 Meters Wind Speed at 10 meters (WSPD10M): 12 kts
5-day plot - Wind Speed at 10 Meters Wind Speed at 20 meters (WSPD20M): 14 kts
5-day plot - Wind Speed, Wind Gust and Atmospheric Pressure Combined plot of Wind Speed, Gust, and Air Pressure
Previous observations
5-day plot - Wind Direction 5-day plot - Wind Speed 5-day plot - Wind Gust 5-day plot - Wave Height 5-day plot - Dominant Wave Period 5-day plot - Average Period 5-day plot - Mean Wave Direction 5-day plot - Atmospheric Pressure 5-day plot - Pressure Tendency 5-day plot - Air Temperature 5-day plot - Water Temperature 5-day plot - Dew Point 5-day plot - Salinity 5-day plot - Visibility 5-day plot - Tide (above MLLW)
MM DD TIME
(AKDT)
WDIR WSPD
kts
GST
kts
WVHT
ft
DPD
sec
APD
sec
MWD PRES
in
PTDY
in
ATMP
°F
WTMP
°F
DEWP
°F
SAL
psu
VIS
nmi
TIDE
ft
0618 4:52 pm W 13 16----30.02- 79.9- 54.0---
0618 4:42 pm W 12 18----30.02- 80.8- 54.0---
0618 4:32 pm W 13 19----30.03- 81.9- 53.8---
0618 4:22 pmWNW 13 21----30.03- 82.8- 53.8---
0618 4:12 pmWNW 11 22----30.04- 82.8- 53.8---
0618 3:52 pmWNW 12 21----30.05- 82.0- 53.6---
0618 3:42 pm NW 12 20----30.05- 81.7- 53.6---
0618 3:32 pmWNW 14 21----30.05- 81.7- 53.4---
0618 3:22 pmWNW 14 24----30.04- 81.3- 53.4---
0618 3:12 pmWNW 14 25----30.04- 81.3- 53.6---
0618 3:02 pmWNW 15 25----30.04- 81.0- 53.8---
0618 2:52 pmWNW 15 24----30.04- 81.0- 53.8---
0618 2:42 pmWNW 14 23----30.04- 80.8- 54.0---
0618 2:32 pmWNW 14 25----30.04- 80.8- 54.0---
0618 2:22 pmWNW 14 27----30.04- 80.8- 54.1---
0618 2:12 pmWNW 14 25----30.04- 80.4- 54.1---
0618 2:02 pmWNW 13 23----30.05- 79.9- 54.1---
0618 1:52 pmWNW 14 26----30.05- 78.4- 54.5---
0618 1:42 pm W 14 23----30.05- 75.9- 54.7---
0618 1:32 pm W 14 21----30.05- 75.6- 54.7---
0618 1:22 pm W 15 22----30.05- 75.7- 54.9---
0618 1:12 pm W 16 22----30.05- 73.8- 54.7---
0618 1:02 pm W 16 22----30.06- 72.9- 54.5---
061812:53 pm W 16 24----30.06- 73.4- 54.3---
061812:43 pm W 17 23----30.06- 74.3- 54.1---
061812:33 pm W 16 26----30.07- 73.9- 54.3---
061812:22 pm W 15 21----30.07- 74.1- 54.5---
061812:12 pm W 15 23----30.07- 73.9- 54.5---
061812:02 pmWNW 14 23----30.07- 73.9- 54.7---
061811:52 am W 14 24----30.08- 72.5- 54.7---
061811:42 amWNW 14 25----30.08- 71.8- 54.5---
061811:32 amWNW 16 26----30.08- 72.1- 54.3---
061811:22 amWNW 15 25----30.08- 72.5- 54.3---
061811:12 amWNW 15 26----30.08- 72.0- 54.1---
061811:02 amWNW 16 30----30.08- 71.2- 54.0---
061810:52 amWNW 15 28----30.08- 71.2- 54.1---
061810:42 amWNW 16 26----30.08- 70.7- 53.8---
061810:32 amWNW 16 28----30.08- 70.2- 53.6---
061810:22 amWNW 14 25----30.09- 69.8- 53.8---
061810:12 amWNW 14 28----30.09- 69.1- 53.6---
061810:02 amWNW 16 25----30.09- 68.7- 53.2---
0618 9:52 am NW 14 27----30.09- 68.9- 53.6---
0618 9:42 am NW 15 26----30.09- 68.5- 53.4---
0618 9:32 amWNW 15 30----30.09- 68.4- 53.4---
0618 9:22 amWNW 15 25----30.09- 68.2- 53.4---
0618 9:12 amWNW 13 23----30.09- 68.2- 53.8---
0618 9:02 amWNW 13 23----30.09- 67.6- 53.6---
0618 8:52 amWNW 15 25----30.09- 66.9- 53.6---
0618 8:42 amWNW 15 25----30.09- 66.2- 53.2---
0618 8:32 amWNW 16 27----30.09- 65.8- 53.2---
0618 8:22 amWNW 16 27----30.09- 65.7- 53.1---
0618 8:12 amWNW 17 29----30.09- 65.5- 52.9---
0618 8:02 amWNW 15 27----30.09- 65.7- 53.1---
0618 7:52 am NW 13 25----30.09- 65.1- 53.2---
0618 7:42 amWNW 15 27----30.09- 64.4- 52.9---
0618 7:32 amWNW 18 29----30.09- 63.9- 52.7---
0618 7:22 amWNW 15 25----30.09- 63.9- 52.9---
0618 7:12 amWNW 15 24----30.09- 63.9- 52.9---
0618 7:02 amWNW 16 28----30.09- 63.7- 52.9---
0618 6:52 amWNW 15 24----30.09- 63.7- 52.9---
0618 6:42 amWNW 14 24----30.10- 63.5- 53.1---
0618 6:32 amWNW 14 25----30.10- 62.6- 52.7---
0618 6:22 amWNW 14 22----30.10- 61.2- 51.6---
0618 6:12 amWNW 14 23----30.10- 61.2- 51.8---
0618 6:02 amWNW 14 22----30.10- 61.2- 52.0---
0618 5:52 am W 16 25----30.10- 61.3- 52.0---
0618 5:42 amWNW 15 26----30.10- 60.8- 52.0---
0618 5:32 am W 18 30----30.10- 60.6- 52.0---
0618 5:22 am W 16 27----30.10- 60.6- 51.8---
0618 5:12 amWNW 15 27----30.10- 60.8- 51.8---
0618 5:02 amWNW 14 24----30.10- 61.2- 51.6---
0618 4:52 amWNW 10 18----30.09- 61.3- 51.6---
0618 4:42 am NW 7 14----30.10- 61.3- 51.6---
0618 4:32 amWNW 11 17----30.10- 61.3- 51.6---
0618 4:22 amWNW 11 21----30.10- 61.2- 51.8---
0618 4:12 amWNW 11 18----30.10- 60.8- 51.8---
0618 4:02 amWNW 11 18----30.10- 60.8- 51.8---
0618 3:52 amWNW 10 16----30.10- 60.6- 51.8---
0618 3:42 amWNW 11 18----30.10- 60.4- 51.8---
0618 3:32 amWNW 12 19----30.10- 60.3- 51.6---
0618 3:22 amWNW 13 23----30.10- 60.3- 51.6---
0618 3:12 amWNW 13 21----30.11- 60.4- 51.6---
0618 3:02 amWNW 14 23----30.11- 60.4- 51.6---
0618 2:52 am W 15 23----30.11- 60.4- 51.6---
0618 2:42 am W 15 24----30.11- 60.6- 51.8---
0618 2:32 am W 15 26----30.11- 60.6- 51.8---
0618 2:22 amWNW 12 20----30.12- 60.8- 51.8---
0618 2:12 amWNW 12 20----30.12- 61.0- 51.8---
0618 2:02 amWNW 14 21----30.11- 61.0- 51.8---
0618 1:52 am W 15 22----30.11- 60.8- 51.8---
0618 1:42 am W 16 24----30.11- 60.8- 51.8---
0618 1:32 am W 17 26----30.11- 61.0- 51.8---
0618 1:22 am W 14 22----30.11- 61.7- 51.6---
0618 1:12 amWNW 8 15----30.12- 62.4- 51.6---
0618 1:02 amWNW 8 13----30.12- 62.6- 51.8---
061812:52 amWNW 10 20----30.11- 63.3- 51.6---
061812:42 am NW 12 23----30.11- 63.5- 51.6---
061812:32 amWNW 11 25----30.11- 62.6- 51.4---
061812:22 amWNW 12 23----30.12- 62.2- 51.8---
061812:12 am W 14 20----30.11- 62.2- 51.6---
0617 9:32 pmWNW 10 19----30.12- 65.1- 51.6---
0617 9:22 pm NW 9 17----30.13- 64.9- 51.6---
0617 9:12 pm NW 10 18----30.12- 64.9- 51.6---

Description of Measurements

Links which are specific to this station are listed below:

Real Time Data in tabular form for the last forty-five days.

Historical Data & Climatic Summaries for quality controlled data for the current month, previous months, and previous years.